contact:dominique.lefevre@mio.osupytheas.fr, maurice.libes@osupytheas.fr, didier.mallarino@osupytheas.fr
Project:EMSO http://www.emso-fr.org/EMSO-France
Depth: 2436.0 m
Title:EMSO Ligure Ouest : Data MII capteur MICROCAT
DateTime_Computer,Latitude,Longitude,Temperature,Conductivity,Pressure,DateTime_Instrument
DateTime_Computer,Latitude,Longitude,degC,S m-1,dbar,DateTime_Instrument
2020-01-16T00:00:47Z,42.805,6.029,13.2964,4.59972,2469.947,2020-1-16T02:01:20Z
2020-01-16T00:03:50Z,42.805,6.029,13.2971,4.59972,2470.007,2020-1-16T02:04:23Z
2020-01-16T00:06:54Z,42.805,6.029,13.2964,4.59973,2469.97,2020-1-16T02:07:26Z
2020-01-16T00:09:57Z,42.805,6.029,13.2965,4.59974,2469.97,2020-1-16T02:10:29Z
2020-01-16T00:13:00Z,42.805,6.029,13.2968,4.59974,2469.97,2020-1-16T02:13:33Z
2020-01-16T00:16:03Z,42.805,6.029,13.2967,4.59971,2470.017,2020-1-16T02:16:36Z
2020-01-16T00:19:07Z,42.805,6.029,13.2975,4.59976,2470.003,2020-1-16T02:19:39Z
2020-01-16T00:22:10Z,42.805,6.029,13.2970,4.59973,2469.97,2020-1-16T02:22:42Z
2020-01-16T00:25:13Z,42.805,6.029,13.2967,4.59973,2469.97,2020-1-16T02:25:46Z
2020-01-16T00:28:16Z,42.805,6.029,13.2968,4.59974,2469.97,2020-1-16T02:28:49Z
2020-01-16T00:31:20Z,42.805,6.029,13.2964,4.59979,2470.007,2020-1-16T02:31:52Z
2020-01-16T00:34:23Z,42.805,6.029,13.2971,4.59978,2469.993,2020-1-16T02:34:55Z
2020-01-16T00:37:26Z,42.805,6.029,13.2970,4.59973,2469.984,2020-1-16T02:37:59Z
2020-01-16T00:40:29Z,42.805,6.029,13.2970,4.59972,2469.96,2020-1-16T02:41:02Z
2020-01-16T00:43:32Z,42.805,6.029,13.2971,4.59975,2469.97,2020-1-16T02:44:05Z
2020-01-16T00:46:36Z,42.805,6.029,13.2971,4.59969,2469.97,2020-1-16T02:47:08Z
2020-01-16T00:49:39Z,42.805,6.029,13.2979,4.59972,2469.947,2020-1-16T02:50:11Z
2020-01-16T00:52:42Z,42.805,6.029,13.2967,4.59978,2469.97,2020-1-16T02:53:15Z
2020-01-16T00:55:45Z,42.805,6.029,13.2973,4.59971,2469.984,2020-1-16T02:56:18Z
2020-01-16T00:58:49Z,42.805,6.029,13.2968,4.59973,2469.947,2020-1-16T02:59:21Z
2020-01-16T01:01:52Z,42.805,6.029,13.2971,4.59976,2469.947,2020-1-16T03:02:24Z
2020-01-16T01:04:55Z,42.805,6.029,13.2968,4.59979,2470.007,2020-1-16T03:05:28Z
2020-01-16T01:07:59Z,42.805,6.029,13.2968,4.59991,2469.947,2020-1-16T03:08:31Z
2020-01-16T01:11:02Z,42.805,6.029,13.2971,4.59974,2469.984,2020-1-16T03:11:34Z
2020-01-16T01:14:05Z,42.805,6.029,13.2969,4.59968,2469.984,2020-1-16T03:14:38Z
2020-01-16T01:17:08Z,42.805,6.029,13.2969,4.59976,2469.947,2020-1-16T03:17:41Z
2020-01-16T01:20:11Z,42.805,6.029,13.2972,4.59968,2469.947,2020-1-16T03:20:44Z
2020-01-16T01:23:15Z,42.805,6.029,13.2966,4.59968,2469.97,2020-1-16T03:23:47Z
2020-01-16T01:26:18Z,42.805,6.029,13.2967,4.59969,2469.984,2020-1-16T03:26:51Z
2020-01-16T01:29:21Z,42.805,6.029,13.2965,4.59972,2469.947,2020-1-16T03:29:54Z
2020-01-16T01:32:24Z,42.805,6.029,13.2971,4.59968,2469.993,2020-1-16T03:32:57Z
2020-01-16T01:35:28Z,42.805,6.029,13.2967,4.59972,2469.984,2020-1-16T03:36:00Z
2020-01-16T01:38:31Z,42.805,6.029,13.2966,4.59971,2469.923,2020-1-16T03:39:03Z
2020-01-16T01:41:34Z,42.805,6.029,13.2969,4.59976,2469.947,2020-1-16T03:42:07Z
2020-01-16T01:44:37Z,42.805,6.029,13.2967,4.59969,2469.947,2020-1-16T03:45:10Z
2020-01-16T01:47:41Z,42.805,6.029,13.2966,4.59967,2469.96,2020-1-16T03:48:13Z
2020-01-16T01:50:44Z,42.805,6.029,13.2969,4.59966,2469.923,2020-1-16T03:51:16Z
2020-01-16T01:53:47Z,42.805,6.029,13.2967,4.59969,2469.984,2020-1-16T03:54:20Z
2020-01-16T01:56:50Z,42.805,6.029,13.2966,4.59968,2469.937,2020-1-16T03:57:23Z
2020-01-16T01:59:54Z,42.805,6.029,13.2965,4.59968,2469.947,2020-1-16T04:00:26Z
2020-01-16T02:02:57Z,42.805,6.029,13.2967,4.59968,2469.947,2020-1-16T04:03:29Z
2020-01-16T02:06:00Z,42.805,6.029,13.2969,4.59966,2469.923,2020-1-16T04:06:33Z
2020-01-16T02:09:03Z,42.805,6.029,13.2964,4.59967,2469.937,2020-1-16T04:09:36Z
2020-01-16T02:12:06Z,42.805,6.029,13.2967,4.59969,2469.923,2020-1-16T04:12:39Z
2020-01-16T02:15:10Z,42.805,6.029,13.2967,4.59966,2469.9,2020-1-16T04:15:42Z
2020-01-16T02:18:13Z,42.805,6.029,13.2967,4.59968,2469.923,2020-1-16T04:18:45Z
2020-01-16T02:21:16Z,42.805,6.029,13.2968,4.59968,2469.923,2020-1-16T04:21:49Z
2020-01-16T02:24:19Z,42.805,6.029,13.2971,4.59967,2469.947,2020-1-16T04:24:52Z
2020-01-16T02:27:23Z,42.805,6.029,13.2965,4.59966,2469.947,2020-1-16T04:27:55Z
2020-01-16T02:30:26Z,42.805,6.029,13.2967,4.59966,2469.923,2020-1-16T04:30:59Z
2020-01-16T02:33:29Z,42.805,6.029,13.2966,4.59970,2469.937,2020-1-16T04:34:02Z
2020-01-16T02:36:33Z,42.805,6.029,13.2966,4.59966,2469.9,2020-1-16T04:37:05Z
2020-01-16T02:39:36Z,42.805,6.029,13.2964,4.59966,2469.9,2020-1-16T04:40:08Z
2020-01-16T02:42:39Z,42.805,6.029,13.2966,4.59968,2469.923,2020-1-16T04:43:11Z
2020-01-16T02:45:42Z,42.805,6.029,13.2969,4.59968,2469.923,2020-1-16T04:46:15Z
2020-01-16T02:48:45Z,42.805,6.029,13.2968,4.59967,2469.97,2020-1-16T04:49:18Z
2020-01-16T02:51:49Z,42.805,6.029,13.2968,4.59967,2469.947,2020-1-16T04:52:21Z
2020-01-16T02:54:52Z,42.805,6.029,13.2962,4.59968,2469.947,2020-1-16T04:55:24Z
2020-01-16T02:57:55Z,42.805,6.029,13.2962,4.59965,2469.923,2020-1-16T04:58:28Z
2020-01-16T03:00:58Z,42.805,6.029,13.2964,4.59967,2469.914,2020-1-16T05:01:31Z
2020-01-16T03:04:01Z,42.805,6.029,13.2967,4.59966,2469.923,2020-1-16T05:04:34Z
2020-01-16T03:07:05Z,42.805,6.029,13.2967,4.59968,2469.9,2020-1-16T05:07:37Z
2020-01-16T03:10:08Z,42.805,6.029,13.2965,4.59966,2469.9,2020-1-16T05:10:40Z
2020-01-16T03:13:11Z,42.805,6.029,13.2968,4.59968,2469.9,2020-1-16T05:13:44Z
2020-01-16T03:16:14Z,42.805,6.029,13.2963,4.59969,2469.876,2020-1-16T05:16:47Z
2020-01-16T03:19:18Z,42.805,6.029,13.2969,4.59992,2469.914,2020-1-16T05:19:50Z
2020-01-16T03:22:21Z,42.805,6.029,13.2965,4.59967,2469.923,2020-1-16T05:22:54Z
2020-01-16T03:25:25Z,42.805,6.029,13.2965,4.59966,2469.9,2020-1-16T05:25:57Z
2020-01-16T03:28:28Z,42.805,6.029,13.2968,4.59965,2469.923,2020-1-16T05:29:01Z
2020-01-16T03:31:31Z,42.805,6.029,13.2962,4.59971,2469.863,2020-1-16T05:32:04Z
2020-01-16T03:34:35Z,42.805,6.029,13.2967,4.59970,2469.876,2020-1-16T05:35:07Z
2020-01-16T03:37:38Z,42.805,6.029,13.2968,4.59968,2469.923,2020-1-16T05:38:10Z
2020-01-16T03:40:41Z,42.805,6.029,13.2964,4.59964,2469.937,2020-1-16T05:41:14Z
2020-01-16T03:43:44Z,42.805,6.029,13.2967,4.59967,2469.876,2020-1-16T05:44:17Z
2020-01-16T03:46:48Z,42.805,6.029,13.2970,4.59966,2469.9,2020-1-16T05:47:20Z
2020-01-16T03:49:51Z,42.805,6.029,13.2964,4.59966,2469.89,2020-1-16T05:50:23Z
2020-01-16T03:52:54Z,42.805,6.029,13.2968,4.59966,2469.89,2020-1-16T05:53:27Z
2020-01-16T03:55:57Z,42.805,6.029,13.2965,4.59966,2469.89,2020-1-16T05:56:30Z
2020-01-16T03:59:01Z,42.805,6.029,13.2967,4.59968,2469.914,2020-1-16T05:59:33Z
2020-01-16T04:02:04Z,42.805,6.029,13.2964,4.59966,2469.89,2020-1-16T06:02:36Z
2020-01-16T04:05:07Z,42.805,6.029,13.2967,4.59966,2469.9,2020-1-16T06:05:40Z
2020-01-16T04:08:10Z,42.805,6.029,13.2967,4.59966,2469.876,2020-1-16T06:08:43Z
2020-01-16T04:11:14Z,42.805,6.029,13.2968,4.59966,2469.9,2020-1-16T06:11:46Z
2020-01-16T04:14:17Z,42.805,6.029,13.2967,4.59966,2469.876,2020-1-16T06:14:49Z
2020-01-16T04:17:20Z,42.805,6.029,13.2967,4.59968,2469.867,2020-1-16T06:17:53Z
2020-01-16T04:20:23Z,42.805,6.029,13.2964,4.59988,2469.867,2020-1-16T06:20:56Z
2020-01-16T04:23:27Z,42.805,6.029,13.2968,4.59966,2469.89,2020-1-16T06:23:59Z
2020-01-16T04:26:30Z,42.805,6.029,13.2968,4.59968,2469.9,2020-1-16T06:27:02Z
2020-01-16T04:29:33Z,42.805,6.029,13.2967,4.59981,2469.89,2020-1-16T06:30:06Z
2020-01-16T04:32:36Z,42.805,6.029,13.2967,4.59977,2469.914,2020-1-16T06:33:09Z
2020-01-16T04:35:40Z,42.805,6.029,13.2966,4.59966,2469.914,2020-1-16T06:36:12Z
2020-01-16T04:38:43Z,42.805,6.029,13.2967,4.59968,2469.876,2020-1-16T06:39:15Z
2020-01-16T04:41:46Z,42.805,6.029,13.2965,4.59966,2469.89,2020-1-16T06:42:19Z
2020-01-16T04:44:49Z,42.805,6.029,13.2968,4.59966,2469.89,2020-1-16T06:45:22Z
2020-01-16T04:47:53Z,42.805,6.029,13.2969,4.59966,2469.937,2020-1-16T06:48:25Z
2020-01-16T04:50:56Z,42.805,6.029,13.2967,4.59966,2469.89,2020-1-16T06:51:28Z
2020-01-16T04:53:59Z,42.805,6.029,13.2970,4.59966,2469.853,2020-1-16T06:54:32Z
2020-01-16T04:57:02Z,42.805,6.029,13.2967,4.59968,2469.876,2020-1-16T06:57:35Z
2020-01-16T05:00:06Z,42.805,6.029,13.2966,4.59971,2469.876,2020-1-16T07:00:38Z
2020-01-16T05:03:09Z,42.805,6.029,13.2971,4.59966,2469.83,2020-1-16T07:03:42Z
2020-01-16T05:06:12Z,42.805,6.029,13.2964,4.59967,2469.867,2020-1-16T07:06:45Z
2020-01-16T05:09:16Z,42.805,6.029,13.2968,4.59966,2469.89,2020-1-16T07:09:48Z
2020-01-16T05:12:19Z,42.805,6.029,13.2965,4.59966,2469.853,2020-1-16T07:12:51Z
2020-01-16T05:15:22Z,42.805,6.029,13.2965,4.59966,2469.853,2020-1-16T07:15:54Z
2020-01-16T05:18:25Z,42.805,6.029,13.2965,4.59966,2469.9,2020-1-16T07:18:58Z
2020-01-16T05:21:28Z,42.805,6.029,13.2968,4.59967,2469.89,2020-1-16T07:22:01Z
2020-01-16T05:24:32Z,42.805,6.029,13.2964,4.59966,2469.876,2020-1-16T07:25:04Z
2020-01-16T05:27:35Z,42.805,6.029,13.2967,4.59965,2469.89,2020-1-16T07:28:07Z
2020-01-16T05:30:38Z,42.805,6.029,13.2968,4.59967,2469.89,2020-1-16T07:31:11Z
2020-01-16T05:33:42Z,42.805,6.029,13.2969,4.59966,2469.876,2020-1-16T07:34:14Z
2020-01-16T05:36:45Z,42.805,6.029,13.2966,4.59975,2469.876,2020-1-16T07:37:17Z
2020-01-16T05:39:48Z,42.805,6.029,13.2967,4.59966,2469.844,2020-1-16T07:40:20Z
2020-01-16T05:42:51Z,42.805,6.029,13.2967,4.59969,2469.876,2020-1-16T07:43:24Z
2020-01-16T05:45:54Z,42.805,6.029,13.2964,4.59973,2469.876,2020-1-16T07:46:27Z
2020-01-16T05:48:58Z,42.805,6.029,13.2968,4.59970,2469.867,2020-1-16T07:49:30Z
2020-01-16T05:52:01Z,42.805,6.029,13.2964,4.59973,2469.89,2020-1-16T07:52:34Z
2020-01-16T05:55:04Z,42.805,6.029,13.2969,4.59974,2469.89,2020-1-16T07:55:37Z
2020-01-16T05:58:07Z,42.805,6.029,13.2967,4.59968,2469.876,2020-1-16T07:58:40Z
2020-01-16T06:01:11Z,42.805,6.029,13.2969,4.59973,2469.9,2020-1-16T08:01:43Z
2020-01-16T06:04:14Z,42.805,6.029,13.2968,4.59967,2469.876,2020-1-16T08:04:46Z
2020-01-16T06:07:17Z,42.805,6.029,13.2967,4.59974,2469.867,2020-1-16T08:07:50Z
2020-01-16T06:10:21Z,42.805,6.029,13.2968,4.59973,2469.876,2020-1-16T08:10:53Z
2020-01-16T06:13:24Z,42.805,6.029,13.2966,4.59970,2469.914,2020-1-16T08:13:56Z
2020-01-16T06:16:27Z,42.805,6.029,13.2967,4.59971,2469.9,2020-1-16T08:17:00Z
2020-01-16T06:19:30Z,42.805,6.029,13.2969,4.59967,2469.853,2020-1-16T08:20:03Z
2020-01-16T06:22:33Z,42.805,6.029,13.2965,4.59967,2469.876,2020-1-16T08:23:06Z
2020-01-16T06:25:37Z,42.805,6.029,13.2966,4.59966,2469.876,2020-1-16T08:26:09Z
2020-01-16T06:28:40Z,42.805,6.029,13.2969,4.59968,2469.876,2020-1-16T08:29:12Z
2020-01-16T06:31:43Z,42.805,6.029,13.2972,4.59970,2469.914,2020-1-16T08:32:16Z
2020-01-16T06:34:46Z,42.805,6.029,13.2966,4.59968,2469.914,2020-1-16T08:35:19Z
2020-01-16T06:37:50Z,42.805,6.029,13.2968,4.59967,2469.9,2020-1-16T08:38:22Z
2020-01-16T06:40:53Z,42.805,6.029,13.2964,4.59965,2469.876,2020-1-16T08:41:26Z
2020-01-16T06:43:56Z,42.805,6.029,13.2970,4.59967,2469.914,2020-1-16T08:44:29Z
2020-01-16T06:47:00Z,42.805,6.029,13.2967,4.59967,2469.876,2020-1-16T08:47:32Z
2020-01-16T06:50:03Z,42.805,6.029,13.2968,4.59965,2469.9,2020-1-16T08:50:35Z
2020-01-16T06:53:06Z,42.805,6.029,13.2970,4.59967,2469.9,2020-1-16T08:53:39Z
2020-01-16T06:56:09Z,42.805,6.029,13.2968,4.59971,2469.9,2020-1-16T08:56:42Z
2020-01-16T06:59:13Z,42.805,6.029,13.2967,4.59967,2469.937,2020-1-16T08:59:45Z
2020-01-16T07:02:16Z,42.805,6.029,13.2965,4.59971,2469.923,2020-1-16T09:02:49Z
2020-01-16T07:05:19Z,42.805,6.029,13.2967,4.59969,2469.876,2020-1-16T09:05:52Z
2020-01-16T07:08:23Z,42.805,6.029,13.2967,4.59970,2469.9,2020-1-16T09:08:55Z
2020-01-16T07:11:26Z,42.805,6.029,13.2966,4.59968,2469.914,2020-1-16T09:11:58Z
2020-01-16T07:14:29Z,42.805,6.029,13.2961,4.59968,2469.923,2020-1-16T09:15:02Z
2020-01-16T07:17:32Z,42.805,6.029,13.2968,4.59968,2469.9,2020-1-16T09:18:05Z
2020-01-16T07:20:35Z,42.805,6.029,13.2965,4.59969,2469.937,2020-1-16T09:21:08Z
2020-01-16T07:23:39Z,42.805,6.029,13.2964,4.59969,2469.914,2020-1-16T09:24:11Z
2020-01-16T07:26:42Z,42.805,6.029,13.2967,4.59972,2469.914,2020-1-16T09:27:14Z
2020-01-16T07:29:45Z,42.805,6.029,13.2967,4.59973,2469.947,2020-1-16T09:30:18Z
2020-01-16T07:32:48Z,42.805,6.029,13.2970,4.59991,2469.947,2020-1-16T09:33:21Z
2020-01-16T07:35:52Z,42.805,6.029,13.2964,4.60006,2469.923,2020-1-16T09:36:24Z
2020-01-16T07:38:55Z,42.805,6.029,13.2968,4.59971,2469.96,2020-1-16T09:39:27Z
2020-01-16T07:41:58Z,42.805,6.029,13.2967,4.59971,2469.937,2020-1-16T09:42:31Z
2020-01-16T07:45:01Z,42.805,6.029,13.2968,4.59988,2469.984,2020-1-16T09:45:34Z
2020-01-16T07:48:05Z,42.805,6.029,13.2967,4.59987,2469.97,2020-1-16T09:48:37Z
2020-01-16T07:51:08Z,42.805,6.029,13.3028,4.60060,2469.937,2020-1-16T09:51:40Z
2020-01-16T07:54:11Z,42.805,6.029,13.2970,4.59974,2469.947,2020-1-16T09:54:44Z
2020-01-16T07:57:14Z,42.805,6.029,13.2967,4.59972,2469.947,2020-1-16T09:57:47Z
2020-01-16T08:00:17Z,42.805,6.029,13.2968,4.59981,2469.947,2020-1-16T10:00:50Z
2020-01-16T08:03:21Z,42.805,6.029,13.2966,4.59981,2469.993,2020-1-16T10:03:53Z
2020-01-16T08:06:24Z,42.805,6.029,13.2968,4.59978,2469.947,2020-1-16T10:06:56Z
2020-01-16T08:09:27Z,42.805,6.029,13.2967,4.59969,2469.984,2020-1-16T10:10:00Z
2020-01-16T08:12:30Z,42.805,6.029,13.2969,4.59968,2469.937,2020-1-16T10:13:03Z
2020-01-16T08:15:33Z,42.805,6.029,13.2967,4.59968,2469.947,2020-1-16T10:16:06Z
2020-01-16T08:18:37Z,42.805,6.029,13.2964,4.59970,2469.947,2020-1-16T10:19:09Z
2020-01-16T08:21:40Z,42.805,6.029,13.2964,4.59968,2469.993,2020-1-16T10:22:13Z
2020-01-16T08:24:43Z,42.805,6.029,13.2966,4.59968,2469.984,2020-1-16T10:25:16Z
2020-01-16T08:27:47Z,42.805,6.029,13.2966,4.59966,2470.007,2020-1-16T10:28:19Z
2020-01-16T08:30:50Z,42.805,6.029,13.2967,4.59969,2470.03,2020-1-16T10:31:22Z
2020-01-16T08:33:53Z,42.805,6.029,13.2966,4.59976,2469.993,2020-1-16T10:34:26Z
2020-01-16T08:36:57Z,42.805,6.029,13.2967,4.59987,2469.993,2020-1-16T10:37:29Z
2020-01-16T08:40:00Z,42.805,6.029,13.2971,4.59982,2470.017,2020-1-16T10:40:32Z
2020-01-16T08:43:03Z,42.805,6.029,13.3028,4.59978,2469.984,2020-1-16T10:43:36Z
2020-01-16T08:46:06Z,42.805,6.029,13.2970,4.59987,2470.04,2020-1-16T10:46:39Z
2020-01-16T08:49:10Z,42.805,6.029,13.2967,4.59976,2470.03,2020-1-16T10:49:42Z
2020-01-16T08:52:13Z,42.805,6.029,13.2967,4.59975,2470.017,2020-1-16T10:52:45Z
2020-01-16T08:55:16Z,42.805,6.029,13.2968,4.59981,2470.053,2020-1-16T10:55:48Z
2020-01-16T08:58:19Z,42.805,6.029,13.2968,4.59978,2470.04,2020-1-16T10:58:52Z
2020-01-16T09:01:22Z,42.805,6.029,13.2965,4.59978,2469.993,2020-1-16T11:01:55Z
2020-01-16T09:04:26Z,42.805,6.029,13.2968,4.59982,2470.017,2020-1-16T11:04:58Z
2020-01-16T09:07:29Z,42.805,6.029,13.2971,4.59986,2470.053,2020-1-16T11:08:02Z
2020-01-16T09:10:32Z,42.805,6.029,13.2970,4.59981,2470.04,2020-1-16T11:11:05Z
2020-01-16T09:13:35Z,42.805,6.029,13.2968,4.59979,2470.053,2020-1-16T11:14:08Z
2020-01-16T09:16:39Z,42.805,6.029,13.2971,4.59983,2470.053,2020-1-16T11:17:11Z
2020-01-16T09:19:42Z,42.805,6.029,13.2973,4.59982,2470.026,2020-1-16T11:20:14Z
2020-01-16T09:22:45Z,42.805,6.029,13.2971,4.59976,2470.04,2020-1-16T11:23:18Z
2020-01-16T09:25:48Z,42.805,6.029,13.2969,4.59981,2470.04,2020-1-16T11:26:21Z
2020-01-16T09:28:52Z,42.805,6.029,13.2967,4.59976,2470.04,2020-1-16T11:29:24Z
2020-01-16T09:31:55Z,42.805,6.029,13.2970,4.59973,2470.017,2020-1-16T11:32:27Z
2020-01-16T09:34:58Z,42.805,6.029,13.2967,4.59978,2470.053,2020-1-16T11:35:31Z
2020-01-16T09:38:01Z,42.805,6.029,13.2967,4.60011,2470.063,2020-1-16T11:38:34Z
2020-01-16T09:41:05Z,42.805,6.029,13.2968,4.59997,2470.1,2020-1-16T11:41:37Z
2020-01-16T09:44:08Z,42.805,6.029,13.2971,4.59974,2470.053,2020-1-16T11:44:40Z
2020-01-16T09:47:11Z,42.805,6.029,13.2982,4.59984,2470.087,2020-1-16T11:47:44Z
2020-01-16T09:50:14Z,42.805,6.029,13.2992,4.59976,2470.077,2020-1-16T11:50:47Z
2020-01-16T09:53:18Z,42.805,6.029,13.2981,4.59981,2470.063,2020-1-16T11:53:50Z
2020-01-16T09:56:21Z,42.805,6.029,13.2975,4.59995,2470.087,2020-1-16T11:56:53Z
2020-01-16T09:59:24Z,42.805,6.029,13.2975,4.59994,2470.077,2020-1-16T11:59:57Z
2020-01-16T10:02:27Z,42.805,6.029,13.2971,4.60018,2470.077,2020-1-16T12:03:00Z
2020-01-16T10:05:31Z,42.805,6.029,13.2979,4.60009,2470.087,2020-1-16T12:06:03Z
2020-01-16T10:08:34Z,42.805,6.029,13.2974,4.60028,2470.1,2020-1-16T12:09:06Z
2020-01-16T10:11:37Z,42.805,6.029,13.2974,4.60031,2470.077,2020-1-16T12:12:10Z
2020-01-16T10:14:40Z,42.805,6.029,13.2967,4.60024,2470.124,2020-1-16T12:15:13Z
2020-01-16T10:17:44Z,42.805,6.029,13.2971,4.59989,2470.1,2020-1-16T12:18:16Z
2020-01-16T10:20:47Z,42.805,6.029,13.2966,4.60014,2470.087,2020-1-16T12:21:19Z
2020-01-16T10:23:50Z,42.805,6.029,13.2967,4.59999,2470.063,2020-1-16T12:24:23Z
2020-01-16T10:26:53Z,42.805,6.029,13.2967,4.59991,2470.087,2020-1-16T12:27:26Z
2020-01-16T10:29:57Z,42.805,6.029,13.2967,4.59990,2470.077,2020-1-16T12:30:29Z
2020-01-16T10:33:00Z,42.805,6.029,13.2966,4.59996,2470.1,2020-1-16T12:33:32Z
2020-01-16T10:36:03Z,42.805,6.029,13.2967,4.59991,2470.11,2020-1-16T12:36:36Z
2020-01-16T10:39:06Z,42.805,6.029,13.2968,4.59988,2470.087,2020-1-16T12:39:39Z
2020-01-16T10:42:09Z,42.805,6.029,13.2966,4.59986,2470.1,2020-1-16T12:42:42Z
2020-01-16T10:45:13Z,42.805,6.029,13.2967,4.59986,2470.1,2020-1-16T12:45:45Z
2020-01-16T10:48:16Z,42.805,6.029,13.2967,4.59990,2470.1,2020-1-16T12:48:48Z
2020-01-16T10:51:19Z,42.805,6.029,13.2968,4.59986,2470.087,2020-1-16T12:51:52Z
2020-01-16T10:54:22Z,42.805,6.029,13.2966,4.59990,2470.124,2020-1-16T12:54:55Z
2020-01-16T10:57:26Z,42.805,6.029,13.2966,4.59988,2470.077,2020-1-16T12:57:58Z
2020-01-16T11:00:29Z,42.805,6.029,13.2971,4.59992,2470.114,2020-1-16T13:01:02Z
2020-01-16T11:03:32Z,42.805,6.029,13.2969,4.59990,2470.087,2020-1-16T13:04:05Z
2020-01-16T11:06:35Z,42.805,6.029,13.2968,4.59988,2470.1,2020-1-16T13:07:08Z
2020-01-16T11:09:39Z,42.805,6.029,13.2965,4.59983,2470.1,2020-1-16T13:10:11Z
2020-01-16T11:12:42Z,42.805,6.029,13.2968,4.59986,2470.087,2020-1-16T13:13:15Z
2020-01-16T11:15:45Z,42.805,6.029,13.2967,4.59985,2470.124,2020-1-16T13:16:18Z
2020-01-16T11:18:48Z,42.805,6.029,13.2967,4.59983,2470.1,2020-1-16T13:19:21Z
2020-01-16T11:21:52Z,42.805,6.029,13.2966,4.59987,2470.087,2020-1-16T13:22:24Z
2020-01-16T11:24:55Z,42.805,6.029,13.2966,4.59988,2470.063,2020-1-16T13:25:27Z
2020-01-16T11:27:58Z,42.805,6.029,13.2964,4.59985,2470.11,2020-1-16T13:28:31Z
2020-01-16T11:31:02Z,42.805,6.029,13.2967,4.59981,2470.11,2020-1-16T13:31:34Z
2020-01-16T11:34:05Z,42.805,6.029,13.2967,4.59982,2470.04,2020-1-16T13:34:37Z
2020-01-16T11:37:08Z,42.805,6.029,13.2964,4.59977,2470.11,2020-1-16T13:37:41Z
2020-01-16T11:40:11Z,42.805,6.029,13.2964,4.59974,2470.073,2020-1-16T13:40:44Z
2020-01-16T11:43:14Z,42.805,6.029,13.2970,4.59976,2470.11,2020-1-16T13:43:47Z
2020-01-16T11:46:18Z,42.805,6.029,13.2966,4.59974,2470.124,2020-1-16T13:46:50Z
2020-01-16T11:49:21Z,42.805,6.029,13.2968,4.59976,2470.11,2020-1-16T13:49:53Z
2020-01-16T11:52:24Z,42.805,6.029,13.2970,4.59980,2470.11,2020-1-16T13:52:57Z
2020-01-16T11:55:28Z,42.805,6.029,13.2968,4.59974,2470.1,2020-1-16T13:56:00Z
2020-01-16T11:58:31Z,42.805,6.029,13.2965,4.59973,2470.11,2020-1-16T13:59:03Z
2020-01-16T12:01:34Z,42.805,6.029,13.2965,4.59973,2470.1,2020-1-16T14:02:07Z
2020-01-16T12:04:37Z,42.805,6.029,13.2967,4.59975,2470.11,2020-1-16T14:05:10Z
2020-01-16T12:07:41Z,42.805,6.029,13.2969,4.59971,2470.087,2020-1-16T14:08:13Z
2020-01-16T12:10:44Z,42.805,6.029,13.2967,4.59973,2470.1,2020-1-16T14:11:16Z
2020-01-16T12:13:47Z,42.805,6.029,13.2965,4.59975,2470.11,2020-1-16T14:14:20Z
2020-01-16T12:16:50Z,42.805,6.029,13.2971,4.59976,2470.063,2020-1-16T14:17:23Z
2020-01-16T12:19:54Z,42.805,6.029,13.2971,4.59974,2470.1,2020-1-16T14:20:26Z
2020-01-16T12:22:57Z,42.805,6.029,13.2965,4.59973,2470.063,2020-1-16T14:23:29Z
2020-01-16T12:26:00Z,42.805,6.029,13.2971,4.59972,2470.063,2020-1-16T14:26:33Z
2020-01-16T12:29:04Z,42.805,6.029,13.2968,4.59974,2470.077,2020-1-16T14:29:36Z
2020-01-16T12:32:07Z,42.805,6.029,13.2967,4.59973,2470.087,2020-1-16T14:32:39Z
2020-01-16T12:35:10Z,42.805,6.029,13.2967,4.59976,2470.087,2020-1-16T14:35:43Z
2020-01-16T12:38:13Z,42.805,6.029,13.2962,4.59978,2470.077,2020-1-16T14:38:46Z
2020-01-16T12:41:16Z,42.805,6.029,13.2967,4.59972,2470.087,2020-1-16T14:41:49Z
2020-01-16T12:44:20Z,42.805,6.029,13.2967,4.59971,2470.04,2020-1-16T14:44:52Z
2020-01-16T12:47:23Z,42.805,6.029,13.2967,4.59970,2470.063,2020-1-16T14:47:56Z
2020-01-16T12:50:26Z,42.805,6.029,13.2967,4.59973,2470.077,2020-1-16T14:50:59Z
2020-01-16T12:53:30Z,42.805,6.029,13.2967,4.59973,2470.077,2020-1-16T14:54:02Z
2020-01-16T12:56:33Z,42.805,6.029,13.2968,4.59970,2470.087,2020-1-16T14:57:05Z
2020-01-16T12:59:36Z,42.805,6.029,13.2965,4.59968,2470.053,2020-1-16T15:00:09Z
2020-01-16T13:02:39Z,42.805,6.029,13.2964,4.59971,2470.087,2020-1-16T15:03:12Z
2020-01-16T13:05:42Z,42.805,6.029,13.2969,4.59970,2470.063,2020-1-16T15:06:15Z
2020-01-16T13:08:46Z,42.805,6.029,13.2971,4.59973,2470.04,2020-1-16T15:09:18Z
2020-01-16T13:11:49Z,42.805,6.029,13.2968,4.59976,2470.077,2020-1-16T15:12:22Z
2020-01-16T13:14:52Z,42.805,6.029,13.2970,4.59970,2470.04,2020-1-16T15:15:25Z
2020-01-16T13:17:56Z,42.805,6.029,13.2968,4.59970,2470.053,2020-1-16T15:18:28Z
2020-01-16T13:20:59Z,42.805,6.029,13.2965,4.59971,2470.063,2020-1-16T15:21:31Z
2020-01-16T13:24:02Z,42.805,6.029,13.2961,4.59971,2470.04,2020-1-16T15:24:35Z
2020-01-16T13:27:05Z,42.805,6.029,13.2967,4.59970,2470.04,2020-1-16T15:27:38Z
2020-01-16T13:30:09Z,42.805,6.029,13.2968,4.59971,2470.017,2020-1-16T15:30:41Z
2020-01-16T13:33:12Z,42.805,6.029,13.2964,4.59971,2470.053,2020-1-16T15:33:44Z
2020-01-16T13:36:15Z,42.805,6.029,13.2964,4.59967,2470.04,2020-1-16T15:36:48Z
2020-01-16T13:39:18Z,42.805,6.029,13.2966,4.59971,2470.063,2020-1-16T15:39:51Z
2020-01-16T13:42:22Z,42.805,6.029,13.2965,4.59971,2470.04,2020-1-16T15:42:54Z
2020-01-16T13:45:25Z,42.805,6.029,13.2967,4.59973,2470.04,2020-1-16T15:45:57Z
2020-01-16T13:48:28Z,42.805,6.029,13.2964,4.59971,2470.04,2020-1-16T15:49:01Z
2020-01-16T13:51:31Z,42.805,6.029,13.2968,4.59973,2470.124,2020-1-16T15:52:04Z
2020-01-16T13:54:35Z,42.805,6.029,13.2964,4.59969,2470.017,2020-1-16T15:55:07Z
2020-01-16T13:57:38Z,42.805,6.029,13.2967,4.59971,2470.017,2020-1-16T15:58:10Z
2020-01-16T14:00:41Z,42.805,6.029,13.2967,4.59968,2470.053,2020-1-16T16:01:14Z
2020-01-16T14:03:44Z,42.805,6.029,13.2967,4.59969,2470.053,2020-1-16T16:04:17Z
2020-01-16T14:06:48Z,42.805,6.029,13.2967,4.59968,2470.007,2020-1-16T16:07:20Z
2020-01-16T14:09:51Z,42.805,6.029,13.2968,4.59971,2470.03,2020-1-16T16:10:23Z
2020-01-16T14:12:54Z,42.805,6.029,13.2965,4.59971,2469.993,2020-1-16T16:13:27Z
2020-01-16T14:15:57Z,42.805,6.029,13.2966,4.59967,2470.03,2020-1-16T16:16:30Z
2020-01-16T14:19:01Z,42.805,6.029,13.2967,4.59972,2470.017,2020-1-16T16:19:33Z
2020-01-16T14:22:04Z,42.805,6.029,13.2968,4.59970,2469.993,2020-1-16T16:22:36Z
2020-01-16T14:25:07Z,42.805,6.029,13.2968,4.59969,2470.053,2020-1-16T16:25:40Z
2020-01-16T14:28:10Z,42.805,6.029,13.2967,4.59972,2470.003,2020-1-16T16:28:43Z
2020-01-16T14:31:14Z,42.805,6.029,13.2969,4.59972,2470.03,2020-1-16T16:31:46Z
2020-01-16T14:34:17Z,42.805,6.029,13.2969,4.59968,2469.993,2020-1-16T16:34:49Z
2020-01-16T14:37:20Z,42.805,6.029,13.2968,4.59973,2470.007,2020-1-16T16:37:53Z
2020-01-16T14:40:23Z,42.805,6.029,13.2966,4.59969,2470.053,2020-1-16T16:40:56Z
2020-01-16T14:43:26Z,42.805,6.029,13.2964,4.59968,2470.017,2020-1-16T16:43:59Z
2020-01-16T14:46:30Z,42.805,6.029,13.2969,4.59973,2470.017,2020-1-16T16:47:02Z
2020-01-16T14:49:33Z,42.805,6.029,13.2968,4.59968,2470.017,2020-1-16T16:50:06Z
2020-01-16T14:52:36Z,42.805,6.029,13.2969,4.59968,2469.993,2020-1-16T16:53:09Z
2020-01-16T14:55:40Z,42.805,6.029,13.2970,4.59966,2470.017,2020-1-16T16:56:12Z
2020-01-16T14:58:43Z,42.805,6.029,13.2971,4.59966,2470.017,2020-1-16T16:59:15Z
2020-01-16T15:01:46Z,42.805,6.029,13.2967,4.59966,2469.993,2020-1-16T17:02:19Z
2020-01-16T15:04:49Z,42.805,6.029,13.2968,4.59968,2470.017,2020-1-16T17:05:22Z
2020-01-16T15:07:53Z,42.805,6.029,13.2970,4.59970,2470.053,2020-1-16T17:08:25Z
2020-01-16T15:10:56Z,42.805,6.029,13.2968,4.59966,2469.993,2020-1-16T17:11:28Z
2020-01-16T15:13:59Z,42.805,6.029,13.2971,4.59966,2470.03,2020-1-16T17:14:32Z